Year,Month,Day,Hour,Minute,Value (Times are PST for temperature in C)
2016,07,26,00,00,21.10
2016,07,26,00,01,21.20
2016,07,26,00,02,21.20
2016,07,26,00,03,21.30
2016,07,26,00,04,21.30
2016,07,26,00,05,21.30
2016,07,26,00,06,21.40
2016,07,26,00,07,21.40
2016,07,26,00,08,21.40
2016,07,26,00,09,21.40
2016,07,26,00,10,21.40
2016,07,26,00,11,21.30
2016,07,26,00,12,21.30
2016,07,26,00,13,21.30
2016,07,26,00,14,21.30
2016,07,26,00,15,21.30
2016,07,26,00,16,21.30
2016,07,26,00,17,21.30
2016,07,26,00,18,21.30
2016,07,26,00,19,21.30
2016,07,26,00,20,21.30
2016,07,26,00,21,21.30
2016,07,26,00,22,21.30
2016,07,26,00,23,21.30
2016,07,26,00,24,21.30
2016,07,26,00,25,21.20
2016,07,26,00,26,21.20
2016,07,26,00,27,21.20
2016,07,26,00,28,21.20
2016,07,26,00,29,21.20
2016,07,26,00,30,21.20
2016,07,26,00,31,21.20
2016,07,26,00,32,21.20
2016,07,26,00,33,21.20
2016,07,26,00,34,21.20
2016,07,26,00,35,21.20
2016,07,26,00,36,21.20
2016,07,26,00,37,21.20
2016,07,26,00,38,21.20
2016,07,26,00,39,21.20
2016,07,26,00,40,21.20
2016,07,26,00,41,21.10
2016,07,26,00,42,21.10
2016,07,26,00,43,21.10
2016,07,26,00,44,21.10
2016,07,26,00,45,21.10
2016,07,26,00,46,21.20
2016,07,26,00,47,21.20
2016,07,26,00,48,21.10
2016,07,26,00,49,21.10
2016,07,26,00,50,21.10
2016,07,26,00,51,21.10
2016,07,26,00,52,21.00
2016,07,26,00,53,21.00
2016,07,26,00,54,21.00
2016,07,26,00,55,21.00
2016,07,26,00,56,21.00
2016,07,26,00,57,20.90
2016,07,26,00,58,20.90
2016,07,26,00,59,20.90
2016,07,26,01,00,20.90
2016,07,26,01,01,20.90
2016,07,26,01,02,20.90
2016,07,26,01,03,20.90
2016,07,26,01,04,20.90
2016,07,26,01,05,20.90
2016,07,26,01,06,20.80
2016,07,26,01,07,20.80
2016,07,26,01,08,20.80
2016,07,26,01,09,20.80
2016,07,26,01,10,20.80
2016,07,26,01,11,20.80
2016,07,26,01,12,20.80
2016,07,26,01,13,20.80
2016,07,26,01,14,20.70
2016,07,26,01,15,20.70
2016,07,26,01,16,20.70
2016,07,26,01,17,20.70
2016,07,26,01,18,20.70
2016,07,26,01,19,20.70
2016,07,26,01,20,20.70
2016,07,26,01,21,20.70
2016,07,26,01,22,20.70
2016,07,26,01,23,20.70
2016,07,26,01,24,20.60
2016,07,26,01,25,20.60
2016,07,26,01,26,20.60
2016,07,26,01,27,20.60
2016,07,26,01,28,20.60
2016,07,26,01,29,20.50
2016,07,26,01,30,20.40
2016,07,26,01,31,20.40
2016,07,26,01,32,20.30
2016,07,26,01,33,20.20
2016,07,26,01,34,20.10
2016,07,26,01,35,20.00
2016,07,26,01,36,19.90
2016,07,26,01,37,19.80
2016,07,26,01,38,19.80
2016,07,26,01,39,19.70
2016,07,26,01,40,19.70
2016,07,26,01,41,19.60
2016,07,26,01,42,19.60
2016,07,26,01,43,19.60
2016,07,26,01,44,19.60
2016,07,26,01,45,19.60
2016,07,26,01,46,19.60
2016,07,26,01,47,19.60
2016,07,26,01,48,19.60
2016,07,26,01,49,19.70
2016,07,26,01,50,19.70
2016,07,26,01,51,19.70
2016,07,26,01,52,19.70
2016,07,26,01,53,19.70
2016,07,26,01,54,19.70
2016,07,26,01,55,19.80
2016,07,26,01,56,19.80
2016,07,26,01,57,19.70
2016,07,26,01,58,19.70
2016,07,26,01,59,19.70
2016,07,26,02,00,19.70
2016,07,26,02,01,19.70
2016,07,26,02,02,19.60
2016,07,26,02,03,19.60
2016,07,26,02,04,19.60
2016,07,26,02,05,19.50
2016,07,26,02,06,19.50
2016,07,26,02,07,19.40
2016,07,26,02,08,19.40
2016,07,26,02,09,19.30
2016,07,26,02,10,19.30
2016,07,26,02,11,19.30
2016,07,26,02,12,19.30
2016,07,26,02,13,19.30
2016,07,26,02,14,19.20
2016,07,26,02,15,19.20
2016,07,26,02,16,19.10
2016,07,26,02,17,19.10
2016,07,26,02,18,19.10
2016,07,26,02,19,19.10
2016,07,26,02,20,19.10
2016,07,26,02,21,19.10
2016,07,26,02,22,19.10
2016,07,26,02,23,19.10
2016,07,26,02,24,19.10
2016,07,26,02,25,19.10
2016,07,26,02,26,19.20
2016,07,26,02,27,19.20
2016,07,26,02,28,19.20
2016,07,26,02,29,19.20
2016,07,26,02,30,19.10
2016,07,26,02,31,19.10
2016,07,26,02,32,19.10
2016,07,26,02,33,19.10
2016,07,26,02,34,19.10
2016,07,26,02,35,19.10
2016,07,26,02,36,19.10
2016,07,26,02,37,19.00
2016,07,26,02,38,19.00
2016,07,26,02,39,18.90
2016,07,26,02,40,18.90
2016,07,26,02,41,18.80
2016,07,26,02,42,18.80
2016,07,26,02,43,18.80
2016,07,26,02,44,18.70
2016,07,26,02,45,18.70
2016,07,26,02,46,18.60
2016,07,26,02,47,18.60
2016,07,26,02,48,18.60
2016,07,26,02,49,18.50
2016,07,26,02,50,18.50
2016,07,26,02,51,18.40
2016,07,26,02,52,18.40
2016,07,26,02,53,18.30
2016,07,26,02,54,18.30
2016,07,26,02,55,18.20
2016,07,26,02,56,18.20
2016,07,26,02,57,18.10
2016,07,26,02,58,18.10
2016,07,26,02,59,18.10
2016,07,26,03,00,18.10
2016,07,26,03,01,18.00
2016,07,26,03,02,18.00
2016,07,26,03,03,18.00
2016,07,26,03,04,17.90
2016,07,26,03,05,17.90
2016,07,26,03,06,17.90
2016,07,26,03,07,17.80
2016,07,26,03,08,17.80
2016,07,26,03,09,17.80
2016,07,26,03,10,17.70
2016,07,26,03,11,17.70
2016,07,26,03,12,17.70
2016,07,26,03,13,17.70
2016,07,26,03,14,17.70
2016,07,26,03,15,17.70
2016,07,26,03,16,17.70
2016,07,26,03,17,17.60
2016,07,26,03,18,17.60
2016,07,26,03,19,17.60
2016,07,26,03,20,17.50
2016,07,26,03,21,17.40
2016,07,26,03,22,17.40
2016,07,26,03,23,17.30
2016,07,26,03,24,17.30
2016,07,26,03,25,17.30
2016,07,26,03,26,17.30
2016,07,26,03,27,17.30
2016,07,26,03,28,17.30
2016,07,26,03,29,17.30
2016,07,26,03,30,17.30
2016,07,26,03,31,17.30
2016,07,26,03,32,17.30
2016,07,26,03,33,17.30
2016,07,26,03,34,17.20
2016,07,26,03,35,17.20
2016,07,26,03,36,17.20
2016,07,26,03,37,17.20
2016,07,26,03,38,17.10
2016,07,26,03,39,17.10
2016,07,26,03,40,17.10
2016,07,26,03,41,17.10
2016,07,26,03,42,17.10
2016,07,26,03,43,17.10
2016,07,26,03,44,17.10
2016,07,26,03,45,17.10
2016,07,26,03,46,17.10
2016,07,26,03,47,17.10
2016,07,26,03,48,17.10
2016,07,26,03,49,17.10
2016,07,26,03,50,17.00
2016,07,26,03,51,17.00
2016,07,26,03,52,16.90
2016,07,26,03,53,16.90
2016,07,26,03,54,16.90
2016,07,26,03,55,16.80
2016,07,26,03,56,16.80
2016,07,26,03,57,16.80
2016,07,26,03,58,16.70
2016,07,26,03,59,16.70
2016,07,26,04,00,16.60
2016,07,26,04,01,16.60
2016,07,26,04,02,16.60
2016,07,26,04,03,16.50
2016,07,26,04,04,16.50
2016,07,26,04,05,16.40
2016,07,26,04,06,16.40
2016,07,26,04,07,16.30
2016,07,26,04,08,16.30
2016,07,26,04,09,16.30
2016,07,26,04,10,16.30
2016,07,26,04,11,16.20
2016,07,26,04,12,16.20
2016,07,26,04,13,16.20
2016,07,26,04,14,16.20
2016,07,26,04,15,16.20
2016,07,26,04,16,16.20
2016,07,26,04,17,16.20
2016,07,26,04,18,16.20
2016,07,26,04,19,16.20
2016,07,26,04,20,16.20
2016,07,26,04,21,16.20
2016,07,26,04,22,16.10
2016,07,26,04,23,16.10
2016,07,26,04,24,16.10
2016,07,26,04,25,16.10
2016,07,26,04,26,16.10
2016,07,26,04,27,16.00
2016,07,26,04,28,16.00
2016,07,26,04,29,16.00
2016,07,26,04,30,16.00
2016,07,26,04,31,16.00
2016,07,26,04,32,16.00
2016,07,26,04,33,16.00
2016,07,26,04,34,16.10
2016,07,26,04,35,16.10
2016,07,26,04,36,16.10
2016,07,26,04,37,16.10
2016,07,26,04,38,16.10
2016,07,26,04,39,16.10
2016,07,26,04,40,16.10
2016,07,26,04,41,16.00
2016,07,26,04,42,16.00
2016,07,26,04,43,16.00
2016,07,26,04,44,16.00
2016,07,26,04,45,16.00
2016,07,26,04,46,16.00
2016,07,26,04,47,15.90
2016,07,26,04,48,15.90
2016,07,26,04,49,15.90
2016,07,26,04,50,15.90
2016,07,26,04,51,15.90
2016,07,26,04,52,15.90
2016,07,26,04,53,15.90
2016,07,26,04,54,15.80
2016,07,26,04,55,15.80
2016,07,26,04,56,15.80
2016,07,26,04,57,15.80
2016,07,26,04,58,15.80
2016,07,26,04,59,15.80
2016,07,26,05,00,15.80
2016,07,26,05,01,15.80
2016,07,26,05,02,15.80
2016,07,26,05,03,15.70
2016,07,26,05,04,15.70
2016,07,26,05,05,15.70
2016,07,26,05,06,15.70
2016,07,26,05,07,15.70
2016,07,26,05,08,15.70
2016,07,26,05,09,15.70
2016,07,26,05,10,15.70
2016,07,26,05,11,15.70
2016,07,26,05,12,15.60
2016,07,26,05,13,15.60
2016,07,26,05,14,15.60
2016,07,26,05,15,15.60
2016,07,26,05,16,15.60
2016,07,26,05,17,15.60
2016,07,26,05,18,15.60
2016,07,26,05,19,15.60
2016,07,26,05,20,15.50
2016,07,26,05,21,15.60
2016,07,26,05,22,15.60
2016,07,26,05,23,15.50
2016,07,26,05,24,15.50
2016,07,26,05,25,15.50
2016,07,26,05,26,15.50
2016,07,26,05,27,15.50
2016,07,26,05,28,15.50
2016,07,26,05,29,15.50
2016,07,26,05,30,15.50
2016,07,26,05,31,15.40
2016,07,26,05,32,15.40
2016,07,26,05,33,15.40
2016,07,26,05,34,15.40
2016,07,26,05,35,15.40
2016,07,26,05,36,15.40
2016,07,26,05,37,15.40
2016,07,26,05,38,15.40
2016,07,26,05,39,15.40
2016,07,26,05,40,15.40
2016,07,26,05,41,15.40
2016,07,26,05,42,15.40
2016,07,26,05,43,15.40
2016,07,26,05,44,15.40
2016,07,26,05,45,15.40
2016,07,26,05,46,15.40
2016,07,26,05,47,15.40
2016,07,26,05,48,15.40
2016,07,26,05,49,15.40
2016,07,26,05,50,15.40
2016,07,26,05,51,15.30
2016,07,26,05,52,15.30
2016,07,26,05,53,15.30
2016,07,26,05,54,15.30
2016,07,26,05,55,15.30
2016,07,26,05,56,15.30
2016,07,26,05,57,15.30
2016,07,26,05,58,15.30
2016,07,26,05,59,15.30
2016,07,26,06,00,15.30
2016,07,26,06,01,15.30
2016,07,26,06,02,15.30
2016,07,26,06,03,15.30
2016,07,26,06,04,15.30
2016,07,26,06,05,15.30
2016,07,26,06,06,15.30
2016,07,26,06,07,15.20
2016,07,26,06,08,15.20
2016,07,26,06,09,15.20
2016,07,26,06,10,15.20
2016,07,26,06,11,15.20
2016,07,26,06,12,15.20
2016,07,26,06,13,15.20
2016,07,26,06,14,15.20
2016,07,26,06,15,15.20
2016,07,26,06,16,15.20
2016,07,26,06,17,15.20
2016,07,26,06,18,15.20
2016,07,26,06,19,15.20
2016,07,26,06,20,15.20
2016,07,26,06,21,15.20
2016,07,26,06,22,15.20
2016,07,26,06,23,15.20
2016,07,26,06,24,15.20
2016,07,26,06,25,15.20
2016,07,26,06,26,15.20
2016,07,26,06,27,15.30
2016,07,26,06,28,15.40
2016,07,26,06,29,15.40
2016,07,26,06,30,15.50
2016,07,26,06,31,15.50
2016,07,26,06,32,15.60
2016,07,26,06,33,15.60
2016,07,26,06,34,15.70
2016,07,26,06,35,15.70
2016,07,26,06,36,15.80
2016,07,26,06,37,15.80
2016,07,26,06,38,15.90
2016,07,26,06,39,15.90
2016,07,26,06,40,16.00
2016,07,26,06,41,16.00
2016,07,26,06,42,16.10
2016,07,26,06,43,16.10
2016,07,26,06,44,16.20
2016,07,26,06,45,16.20
2016,07,26,06,46,16.30
2016,07,26,06,47,16.30
2016,07,26,06,48,16.30
2016,07,26,06,49,16.40
2016,07,26,06,50,16.40
2016,07,26,06,51,16.50
2016,07,26,06,52,16.60
2016,07,26,06,53,16.70
2016,07,26,06,54,16.80
2016,07,26,06,55,16.90
2016,07,26,06,56,17.00
2016,07,26,06,57,17.00
2016,07,26,06,58,17.10
2016,07,26,06,59,17.20
2016,07,26,07,00,17.20
2016,07,26,07,01,17.30
2016,07,26,07,02,17.30
2016,07,26,07,03,17.40
2016,07,26,07,04,17.40
2016,07,26,07,05,17.50
2016,07,26,07,06,17.60
2016,07,26,07,07,17.60
2016,07,26,07,08,17.70
2016,07,26,07,09,17.70
2016,07,26,07,10,17.80
2016,07,26,07,11,17.80
2016,07,26,07,12,17.80
2016,07,26,07,13,17.90
2016,07,26,07,14,17.90
2016,07,26,07,15,17.90
2016,07,26,07,16,17.90
2016,07,26,07,17,17.90
2016,07,26,07,18,17.90
2016,07,26,07,19,17.90
2016,07,26,07,20,18.00
2016,07,26,07,21,18.00
2016,07,26,07,22,18.10
2016,07,26,07,23,18.10
2016,07,26,07,24,18.10
2016,07,26,07,25,18.10
2016,07,26,07,26,18.10
2016,07,26,07,27,18.10
2016,07,26,07,28,18.10
2016,07,26,07,29,18.10
2016,07,26,07,30,18.10
2016,07,26,07,31,18.20
2016,07,26,07,32,18.20
2016,07,26,07,33,18.20
2016,07,26,07,34,18.20
2016,07,26,07,35,18.20
2016,07,26,07,36,18.20
2016,07,26,07,37,18.20
2016,07,26,07,38,18.30
2016,07,26,07,39,18.30
2016,07,26,07,40,18.30
2016,07,26,07,41,18.30
2016,07,26,07,42,18.30
2016,07,26,07,43,18.30
2016,07,26,07,44,18.30
2016,07,26,07,45,18.30
2016,07,26,07,46,18.30
2016,07,26,07,47,18.30
2016,07,26,07,48,18.30
2016,07,26,07,49,18.30
2016,07,26,07,50,18.40
2016,07,26,07,51,18.40
2016,07,26,07,52,18.40
2016,07,26,07,53,18.40
2016,07,26,07,54,18.50
2016,07,26,07,55,18.50
2016,07,26,07,56,18.60
2016,07,26,07,57,18.60
2016,07,26,07,58,18.60
2016,07,26,07,59,18.50
2016,07,26,08,00,18.60
2016,07,26,08,01,18.50
2016,07,26,08,02,18.60
2016,07,26,08,03,18.60
2016,07,26,08,04,18.60
2016,07,26,08,05,18.70
2016,07,26,08,06,18.70
2016,07,26,08,07,18.70
2016,07,26,08,08,18.70
2016,07,26,08,09,18.70
2016,07,26,08,10,18.70
2016,07,26,08,11,18.70
2016,07,26,08,12,18.80
2016,07,26,08,13,18.80
2016,07,26,08,14,18.80
2016,07,26,08,15,18.80
2016,07,26,08,16,18.80
2016,07,26,08,17,18.80
2016,07,26,08,18,18.80
2016,07,26,08,19,18.80
2016,07,26,08,20,18.80
2016,07,26,08,21,18.80
2016,07,26,08,22,18.80
2016,07,26,08,23,18.80
2016,07,26,08,24,18.80
2016,07,26,08,25,18.90
2016,07,26,08,26,18.90
2016,07,26,08,27,18.90
2016,07,26,08,28,19.00
2016,07,26,08,29,19.00
2016,07,26,08,30,19.10
2016,07,26,08,31,19.10
2016,07,26,08,32,19.10
2016,07,26,08,33,19.20
2016,07,26,08,34,19.20
2016,07,26,08,35,19.20
2016,07,26,08,36,19.20
2016,07,26,08,37,19.20
2016,07,26,08,38,19.20
2016,07,26,08,39,19.10
2016,07,26,08,40,19.10
2016,07,26,08,41,19.10
2016,07,26,08,42,19.10
2016,07,26,08,43,19.10
2016,07,26,08,44,19.00
2016,07,26,08,45,19.00
2016,07,26,08,46,19.00
2016,07,26,08,47,18.90
2016,07,26,08,48,18.90
2016,07,26,08,49,19.00
2016,07,26,08,50,19.00
2016,07,26,08,51,19.10
2016,07,26,08,52,19.10
2016,07,26,08,53,19.10
2016,07,26,08,54,19.10
2016,07,26,08,55,19.10
2016,07,26,08,56,19.10
2016,07,26,08,57,19.10
2016,07,26,08,58,19.10
2016,07,26,08,59,19.10
2016,07,26,09,00,19.00
2016,07,26,09,01,19.00
2016,07,26,09,02,19.00
2016,07,26,09,03,19.00
2016,07,26,09,04,19.00
2016,07,26,09,05,19.00
2016,07,26,09,06,19.00
2016,07,26,09,07,19.00
2016,07,26,09,08,19.00
2016,07,26,09,09,19.00
2016,07,26,09,10,19.10
2016,07,26,09,11,19.10
2016,07,26,09,12,19.10
2016,07,26,09,13,19.10
2016,07,26,09,14,19.10
2016,07,26,09,15,19.10
2016,07,26,09,16,19.20
2016,07,26,09,17,19.20
2016,07,26,09,18,19.20
2016,07,26,09,19,19.20
2016,07,26,09,20,19.30
2016,07,26,09,21,19.30
2016,07,26,09,22,19.30
2016,07,26,09,23,19.30
2016,07,26,09,24,19.30
2016,07,26,09,25,19.40
2016,07,26,09,26,19.30
2016,07,26,09,27,19.30
2016,07,26,09,28,19.30
2016,07,26,09,29,19.20
2016,07,26,09,30,19.20
2016,07,26,09,31,19.20
2016,07,26,09,32,19.20
2016,07,26,09,33,19.20
2016,07,26,09,34,19.20
2016,07,26,09,35,19.30
2016,07,26,09,36,19.30
2016,07,26,09,37,19.40
2016,07,26,09,38,19.40
2016,07,26,09,39,19.40
2016,07,26,09,40,19.50
2016,07,26,09,41,19.50
2016,07,26,09,42,19.50
2016,07,26,09,43,19.40
2016,07,26,09,44,19.40
2016,07,26,09,45,19.40
2016,07,26,09,46,19.40
2016,07,26,09,47,19.40
2016,07,26,09,48,19.40
2016,07,26,09,49,19.30
2016,07,26,09,50,19.30
2016,07,26,09,51,19.40
2016,07,26,09,52,19.40
2016,07,26,09,53,19.50
2016,07,26,09,54,19.50
2016,07,26,09,55,19.50
2016,07,26,09,56,19.60
2016,07,26,09,57,19.60
2016,07,26,09,58,19.70
2016,07,26,09,59,19.80
2016,07,26,10,00,19.80
2016,07,26,10,01,19.80
2016,07,26,10,02,19.90
2016,07,26,10,03,19.90
2016,07,26,10,04,19.90
2016,07,26,10,05,19.90
2016,07,26,10,06,19.90
2016,07,26,10,07,19.90
2016,07,26,10,08,19.90
2016,07,26,10,09,19.90
2016,07,26,10,10,19.90
2016,07,26,10,11,19.90
2016,07,26,10,12,19.80
2016,07,26,10,13,19.80
2016,07,26,10,14,19.70
2016,07,26,10,15,19.70
2016,07,26,10,16,19.70
2016,07,26,10,17,19.70
2016,07,26,10,18,19.80
2016,07,26,10,19,19.80
2016,07,26,10,20,19.90
2016,07,26,10,21,20.00
2016,07,26,10,22,20.10
2016,07,26,10,23,20.10
2016,07,26,10,24,20.00
2016,07,26,10,25,20.00
2016,07,26,10,26,19.90
2016,07,26,10,27,19.90
2016,07,26,10,28,19.90
2016,07,26,10,29,20.00
2016,07,26,10,30,20.00
2016,07,26,10,31,20.00
2016,07,26,10,32,20.00
2016,07,26,10,33,20.00
2016,07,26,10,34,20.00
2016,07,26,10,35,20.00
2016,07,26,10,36,19.90
2016,07,26,10,37,20.00
2016,07,26,10,38,20.00
2016,07,26,10,39,20.00
2016,07,26,10,40,20.00
2016,07,26,10,41,20.00
2016,07,26,10,42,20.00
2016,07,26,10,43,19.90
2016,07,26,10,44,19.90
2016,07,26,10,45,19.80
2016,07,26,10,46,19.80
2016,07,26,10,47,19.80
2016,07,26,10,48,19.90
2016,07,26,10,49,19.90
2016,07,26,10,50,20.00
2016,07,26,10,51,20.10
2016,07,26,10,52,20.20
2016,07,26,10,53,20.20
2016,07,26,10,54,20.20
2016,07,26,10,55,20.30
2016,07,26,10,56,20.40
2016,07,26,10,57,20.40
2016,07,26,10,58,20.40
2016,07,26,10,59,20.40
2016,07,26,11,00,20.30
2016,07,26,11,01,20.30
2016,07,26,11,02,20.30
2016,07,26,11,03,20.30
2016,07,26,11,04,20.30
2016,07,26,11,05,20.30
2016,07,26,11,06,20.30
2016,07,26,11,07,20.30
2016,07,26,11,08,20.30
2016,07,26,11,09,20.30
2016,07,26,11,10,20.30
2016,07,26,11,11,20.30
2016,07,26,11,12,20.20
2016,07,26,11,13,20.20
2016,07,26,11,14,20.20
2016,07,26,11,15,20.20
2016,07,26,11,16,20.10
2016,07,26,11,17,20.20
2016,07,26,11,18,20.10
2016,07,26,11,19,20.10
2016,07,26,11,20,20.10
2016,07,26,11,21,20.10
2016,07,26,11,22,20.10
2016,07,26,11,23,20.10
2016,07,26,11,24,20.20
2016,07,26,11,25,20.30
2016,07,26,11,26,20.30
2016,07,26,11,27,20.40
2016,07,26,11,28,20.50
2016,07,26,11,29,20.60
2016,07,26,11,30,20.60
2016,07,26,11,31,20.60
2016,07,26,11,32,20.60
2016,07,26,11,33,20.60
2016,07,26,11,34,20.60
2016,07,26,11,35,20.60
2016,07,26,11,36,20.60
2016,07,26,11,37,20.60
2016,07,26,11,38,20.60
2016,07,26,11,39,20.60
2016,07,26,11,40,20.60
2016,07,26,11,41,20.50
2016,07,26,11,42,20.50
2016,07,26,11,43,20.60
2016,07,26,11,44,20.60
2016,07,26,11,45,20.70
2016,07,26,11,46,20.80
2016,07,26,11,47,20.80
2016,07,26,11,48,20.80
2016,07,26,11,49,20.80
2016,07,26,11,50,20.80
2016,07,26,11,51,20.70
2016,07,26,11,52,20.80
2016,07,26,11,53,20.80
2016,07,26,11,54,20.80
2016,07,26,11,55,20.80
2016,07,26,11,56,20.80
2016,07,26,11,57,20.80
2016,07,26,11,58,20.90
2016,07,26,11,59,21.00
2016,07,26,12,00,21.00
2016,07,26,12,01,21.10
2016,07,26,12,02,21.00
2016,07,26,12,03,21.00
2016,07,26,12,04,21.00
2016,07,26,12,05,21.00
2016,07,26,12,06,21.00
2016,07,26,12,07,21.10
2016,07,26,12,08,21.10
2016,07,26,12,09,21.20
2016,07,26,12,10,21.20
2016,07,26,12,11,21.30
2016,07,26,12,12,21.40
2016,07,26,12,13,21.40
2016,07,26,12,14,21.50
2016,07,26,12,15,21.60
2016,07,26,12,16,21.70
2016,07,26,12,17,21.80
2016,07,26,12,18,21.80
2016,07,26,12,19,21.90
2016,07,26,12,20,21.90
2016,07,26,12,21,21.90
2016,07,26,12,22,21.80
2016,07,26,12,23,21.80
2016,07,26,12,24,21.80
2016,07,26,12,25,21.80
2016,07,26,12,26,21.90
2016,07,26,12,27,21.90
2016,07,26,12,28,22.00
2016,07,26,12,29,22.10
2016,07,26,12,30,22.10
2016,07,26,12,31,22.20
2016,07,26,12,32,22.20
2016,07,26,12,33,22.20
2016,07,26,12,34,22.20
2016,07,26,12,35,22.30
2016,07,26,12,36,22.40
2016,07,26,12,37,22.40
2016,07,26,12,38,22.40
2016,07,26,12,39,22.40
2016,07,26,12,40,22.40
2016,07,26,12,41,22.50
2016,07,26,12,42,22.60
2016,07,26,12,43,22.60
2016,07,26,12,44,22.60
2016,07,26,12,45,22.60
2016,07,26,12,46,22.60
2016,07,26,12,47,22.70
2016,07,26,12,48,22.80
2016,07,26,12,49,22.80
2016,07,26,12,50,22.90
2016,07,26,12,51,22.90
2016,07,26,12,52,22.70
2016,07,26,12,53,22.60
2016,07,26,12,54,22.50
2016,07,26,12,55,22.40
2016,07,26,12,56,22.30
2016,07,26,12,57,22.30
2016,07,26,12,58,22.30
2016,07,26,12,59,22.40
2016,07,26,13,00,22.40
2016,07,26,13,01,22.40
2016,07,26,13,02,22.50
2016,07,26,13,03,22.60
2016,07,26,13,04,22.60
2016,07,26,13,05,22.60
2016,07,26,13,06,22.70
2016,07,26,13,07,22.70
2016,07,26,13,08,22.70
2016,07,26,13,09,22.60
2016,07,26,13,10,22.60
2016,07,26,13,11,22.60
2016,07,26,13,12,22.60
2016,07,26,13,13,22.60
2016,07,26,13,14,22.60
2016,07,26,13,15,22.60
2016,07,26,13,16,22.60
2016,07,26,13,17,22.70
2016,07,26,13,18,22.70
2016,07,26,13,19,22.70
2016,07,26,13,20,22.70
2016,07,26,13,21,22.60
2016,07,26,13,22,22.60
2016,07,26,13,23,22.60
2016,07,26,13,24,22.70
2016,07,26,13,25,22.80
2016,07,26,13,26,22.80
2016,07,26,13,27,22.90
2016,07,26,13,28,22.90
2016,07,26,13,29,22.90
2016,07,26,13,30,22.90
2016,07,26,13,31,22.80
2016,07,26,13,32,22.80
2016,07,26,13,33,22.80
2016,07,26,13,34,22.80
2016,07,26,13,35,22.80
2016,07,26,13,36,22.80
2016,07,26,13,37,22.90
2016,07,26,13,38,22.80
2016,07,26,13,39,22.80
2016,07,26,13,40,22.80
2016,07,26,13,41,22.80
2016,07,26,13,42,22.80
2016,07,26,13,43,22.80
2016,07,26,13,44,22.70
2016,07,26,13,45,22.80
2016,07,26,13,46,22.90
2016,07,26,13,47,23.00
2016,07,26,13,48,23.20
2016,07,26,13,49,23.30
2016,07,26,13,50,23.40
2016,07,26,13,51,23.50
2016,07,26,13,52,23.60
2016,07,26,13,53,23.50
2016,07,26,13,54,23.40
2016,07,26,13,55,23.40
2016,07,26,13,56,23.40
2016,07,26,13,57,23.30
2016,07,26,13,58,23.30
2016,07,26,13,59,23.30
2016,07,26,14,00,23.30
2016,07,26,14,01,23.30
2016,07,26,14,02,23.40
2016,07,26,14,03,23.60
2016,07,26,14,04,23.60
2016,07,26,14,05,23.70
2016,07,26,14,06,23.80
2016,07,26,14,07,23.80
2016,07,26,14,08,23.80
2016,07,26,14,09,23.70
2016,07,26,14,10,23.70
2016,07,26,14,11,23.60
2016,07,26,14,12,23.50
2016,07,26,14,13,23.40
2016,07,26,14,14,23.30
2016,07,26,14,15,23.30
2016,07,26,14,16,23.30
2016,07,26,14,17,23.30
2016,07,26,14,18,23.20
2016,07,26,14,19,23.30
2016,07,26,14,20,23.40
2016,07,26,14,21,23.50
2016,07,26,14,22,23.60
2016,07,26,14,23,23.70
2016,07,26,14,24,23.70
2016,07,26,14,25,23.70
2016,07,26,14,26,23.70
2016,07,26,14,27,23.80
2016,07,26,14,28,23.80
2016,07,26,14,29,23.90
2016,07,26,14,30,23.90
2016,07,26,14,31,23.80
2016,07,26,14,32,23.80
2016,07,26,14,33,23.70
2016,07,26,14,34,23.70
2016,07,26,14,35,23.60
2016,07,26,14,36,23.60
2016,07,26,14,37,23.70
2016,07,26,14,38,23.70
2016,07,26,14,39,23.80
2016,07,26,14,40,23.80
2016,07,26,14,41,23.80
2016,07,26,14,42,23.80
2016,07,26,14,43,23.90
2016,07,26,14,44,24.00
2016,07,26,14,45,24.10
2016,07,26,14,46,24.10
2016,07,26,14,47,24.10
2016,07,26,14,48,24.10
2016,07,26,14,49,24.00
2016,07,26,14,50,24.00
2016,07,26,14,51,24.00
2016,07,26,14,52,24.10
2016,07,26,14,53,24.10
2016,07,26,14,54,24.10
2016,07,26,14,55,24.10
2016,07,26,14,56,24.10
2016,07,26,14,57,24.10
2016,07,26,14,58,24.10
2016,07,26,14,59,24.20
2016,07,26,15,00,24.20
2016,07,26,15,01,24.20
2016,07,26,15,02,24.20
2016,07,26,15,03,24.30
2016,07,26,15,04,24.40
2016,07,26,15,05,24.40
2016,07,26,15,06,24.50
2016,07,26,15,07,24.60
2016,07,26,15,08,24.80
2016,07,26,15,09,24.90
2016,07,26,15,10,25.10
2016,07,26,15,11,25.20
2016,07,26,15,12,25.30
2016,07,26,15,13,25.50
2016,07,26,15,14,25.60
2016,07,26,15,15,25.80
2016,07,26,15,16,25.90
2016,07,26,15,17,25.90
2016,07,26,15,18,25.90
2016,07,26,15,19,25.90
2016,07,26,15,20,25.90
2016,07,26,15,21,25.90
2016,07,26,15,22,25.80
2016,07,26,15,23,25.80
2016,07,26,15,24,25.90
2016,07,26,15,25,26.00
2016,07,26,15,26,26.00
2016,07,26,15,27,26.00
2016,07,26,15,28,26.00
2016,07,26,15,29,25.90
2016,07,26,15,30,25.70
2016,07,26,15,31,25.60
2016,07,26,15,32,25.60
2016,07,26,15,33,25.60
2016,07,26,15,34,25.60
2016,07,26,15,35,25.60
2016,07,26,15,36,25.50
2016,07,26,15,37,25.50
2016,07,26,15,38,25.40
2016,07,26,15,39,25.40
2016,07,26,15,40,25.40
2016,07,26,15,41,25.40
2016,07,26,15,42,25.50
2016,07,26,15,43,25.60
2016,07,26,15,44,25.60
2016,07,26,15,45,25.60
2016,07,26,15,46,25.60
2016,07,26,15,47,25.60
2016,07,26,15,48,25.60
2016,07,26,15,49,25.70
2016,07,26,15,50,25.70
2016,07,26,15,51,25.80
2016,07,26,15,52,25.80
2016,07,26,15,53,25.80
2016,07,26,15,54,25.80
2016,07,26,15,55,25.70
2016,07,26,15,56,25.80
2016,07,26,15,57,25.80
2016,07,26,15,58,25.80
2016,07,26,15,59,25.90
2016,07,26,16,00,25.90
2016,07,26,16,01,26.00
2016,07,26,16,02,25.90
2016,07,26,16,03,25.80
2016,07,26,16,04,25.80
2016,07,26,16,05,25.70
2016,07,26,16,06,25.80
2016,07,26,16,07,25.80
2016,07,26,16,08,25.70
2016,07,26,16,09,25.70
2016,07,26,16,10,25.70
2016,07,26,16,11,25.70
2016,07,26,16,12,25.70
2016,07,26,16,13,25.70
2016,07,26,16,14,25.70
2016,07,26,16,15,25.80
2016,07,26,16,16,25.80
2016,07,26,16,17,25.90
2016,07,26,16,18,25.90
2016,07,26,16,19,26.00
2016,07,26,16,20,26.10
2016,07,26,16,21,26.20
2016,07,26,16,22,26.20
2016,07,26,16,23,26.20
2016,07,26,16,24,26.20
2016,07,26,16,25,26.10
2016,07,26,16,26,26.10
2016,07,26,16,27,26.10
2016,07,26,16,28,26.10
2016,07,26,16,29,26.10
2016,07,26,16,30,26.10
2016,07,26,16,31,26.10
2016,07,26,16,32,26.10
2016,07,26,16,33,26.00
2016,07,26,16,34,25.90
2016,07,26,16,35,25.80
2016,07,26,16,36,25.80
2016,07,26,16,37,25.80
2016,07,26,16,38,25.80
2016,07,26,16,39,25.80
2016,07,26,16,40,25.80
2016,07,26,16,41,25.80
2016,07,26,16,42,25.80
2016,07,26,16,43,25.80
2016,07,26,16,44,25.80
2016,07,26,16,45,25.80
2016,07,26,16,46,25.80
2016,07,26,16,47,25.70
2016,07,26,16,48,25.60
2016,07,26,16,49,25.50
2016,07,26,16,50,25.40
2016,07,26,16,51,25.40
2016,07,26,16,52,25.50
2016,07,26,16,53,25.60
2016,07,26,16,54,25.60
2016,07,26,16,55,25.70
2016,07,26,16,56,25.80
2016,07,26,16,57,25.90
2016,07,26,16,58,26.10
2016,07,26,16,59,26.10
2016,07,26,17,00,26.10
2016,07,26,17,01,26.00
2016,07,26,17,02,25.90
2016,07,26,17,03,25.80
2016,07,26,17,04,25.80
2016,07,26,17,05,25.80
2016,07,26,17,06,25.80
2016,07,26,17,07,25.80
2016,07,26,17,08,25.90
2016,07,26,17,09,25.90
2016,07,26,17,10,25.80
2016,07,26,17,11,25.80
2016,07,26,17,12,25.70
2016,07,26,17,13,25.70
2016,07,26,17,14,25.70
2016,07,26,17,15,25.70
2016,07,26,17,16,25.70
2016,07,26,17,17,25.70
2016,07,26,17,18,25.70
2016,07,26,17,19,25.70